Flag for Japan Weather past 2 weeks in Sapporo, Japan

Now
62 °F

Mild.


Feels Like: 62 °F
Forecast: 56 / 73 °F
Wind: 5 mph from North

Location: Sapporo

Current Time: Jul 6, 2015 at 12:38:33 AM

Latest Report: Jul 5, 2015 at 11:00 PM


Visibility: N/A

Pressure: 29.91 "Hg

Humidity: 83%

Dew point: 57 °F

Location of SapporoLocation

Historic Weather in Sapporo — Graph

°F

Sapporo temperature yesterday

Maximum temperature yesterday: 73 °F (at 11:00 AM)
Minimum temperature yesterday: 59 °F (at 5:00 AM)
Average temperature yesterday: 64 °F

Past Weeks' High & Low Weather Summary

 TemperatureHumidityPressure
High76 °F (Jun 21, 1:00 PM)94% (Jun 23, 8:00 PM)29.92 "Hg (Jun 23, 8:00 PM)
Low54 °F (Jun 21, 4:00 AM)47% (Jul 2, 12:00 PM)29.32 "Hg (Jul 1, 5:00 PM)
Average63 °F77%29.74 "Hg
* Reported Jun 20 11:00 PM — Jul 5 11:00 PM, Sapporo, Weather by CustomWeather, © 2015

Note: Actual official high and low records may vary slightly from our data, if they occured in-between our weather recording intervals... More about our weather records

Advertising

Sapporo weather history for previous 24 hours

 ConditionsComfort  
Time TempWeatherWind HumidityBarometerVisibility
11:00 PM
Sun, Jul 5
62 °FMild.5 mph83%29.91 "HgN/A
10:00 PM63 °FMild.7 mph78%29.91 "HgN/A
9:00 PM64 °FOvercast.5 mph77%29.91 "Hg6 mi
8:00 PM64 °FMild.6 mph77%29.90 "HgN/A
7:00 PM64 °FMild.8 mph78%29.89 "HgN/A
6:00 PM64 °FOvercast.10 mph77%29.88 "Hg9 mi
5:00 PM66 °FMild.14 mph72%29.86 "HgN/A
4:00 PM68 °FMild.12 mph64%29.86 "HgN/A
3:00 PM70 °FScattered clouds.9 mph61%29.86 "Hg19 mi
2:00 PM69 °FMild.13 mph59%29.86 "HgN/A
1:00 PM72 °FMild.8 mph56%29.85 "HgN/A
11:00 AM73 °FMild.5 mph49%29.86 "HgN/A
10:00 AM69 °FMild.8 mph56%29.86 "HgN/A
9:00 AM66 °FPassing clouds.3 mph64%29.88 "Hg19 mi
8:00 AM63 °FMild.8 mph66%29.89 "HgN/A
7:00 AM60 °FCool.6 mph73%29.90 "HgN/A
6:00 AM60 °FOvercast.5 mph75%29.90 "Hg9 mi
5:00 AM59 °FCool.2 mph77%29.91 "HgN/A
4:00 AM59 °FCool.3 mph78%29.90 "HgN/A
3:00 AM59 °FOvercast.3 mph78%29.89 "Hg9 mi
2:00 AM59 °FCool.3 mph78%29.89 "HgN/A
1:00 AM59 °FCool.3 mph79%29.89 "HgN/A
12:00 AM60 °FCool.3 mph78%29.88 "HgN/A
Weather by CustomWeather, © 2015

See weather overviewHow to use our weather pages